"read_dt","SO2 (ppb)","flags","PMT voltage (V)","lamp voltage (V)","lamp intensity (Hz)","internal temp (C)","react chamber temp (C)","sample flow (l/min)","pres (mmHg)","SO2 bkg (ppb)","SO2 coefficient"
2014-05-23 00:00:00,1831E-3,5C000000,-0724,0854,11946,035.9,045.7,0.474,728.5,01.19,0.508
2014-05-23 00:01:00,1805E-3,5C000000,-0724,0854,11919,035.9,045.7,0.473,728.5,01.19,0.508
2014-05-23 00:02:00,1855E-3,5C000000,-0724,0855,11947,035.9,045.7,0.474,728.5,01.19,0.508
2014-05-23 00:03:00,1986E-3,5C000000,-0724,0855,11903,035.9,045.8,0.474,728.5,01.19,0.508
2014-05-23 00:04:00,1950E-3,5C000000,-0724,0854,11799,035.9,045.8,0.473,728.5,01.19,0.508
2014-05-23 00:05:00,1930E-3,5C000000,-0724,0854,11913,035.9,045.8,0.473,728.4,01.19,0.508
2014-05-23 00:06:00,1818E-3,5C000000,-0724,0854,12037,035.9,045.8,0.474,728.5,01.19,0.508
2014-05-23 00:07:00,1843E-3,5C000000,-0724,0855,11918,035.9,045.8,0.474,728.4,01.19,0.508
2014-05-23 00:08:00,1791E-3,5C000000,-0724,0855,12021,035.9,045.8,0.473,728.4,01.19,0.508
2014-05-23 00:09:00,1899E-3,5C000000,-0724,0854,11910,035.9,045.7,0.474,728.4,01.19,0.508
2014-05-23 00:10:00,1704E-3,5C000000,-0724,0854,11770,035.9,045.7,0.474,728.4,01.19,0.508
2014-05-23 00:11:00,1828E-3,5C000000,-0724,0855,11880,035.9,045.7,0.473,728.4,01.19,0.508
2014-05-23 00:12:00,1670E-3,5C000000,-0724,0854,11893,035.9,045.7,0.473,728.4,01.19,0.508
2014-05-23 00:13:00,1857E-3,5C000000,-0724,0855,11926,035.9,045.8,0.474,728.4,01.19,0.508
2014-05-23 00:14:00,1914E-3,5C000000,-0724,0854,11920,035.9,045.8,0.473,728.4,01.19,0.508
2014-05-23 00:15:00,1777E-3,5C000000,-0724,0855,11827,035.9,045.8,0.473,728.4,01.19,0.508
2014-05-23 00:16:00,1747E-3,5C000000,-0724,0855,11971,035.9,045.8,0.474,728.4,01.19,0.508
2014-05-23 00:17:00,1872E-3,5C000000,-0724,0855,11989,036.0,045.8,0.473,728.3,01.19,0.508
2014-05-23 00:18:00,1789E-3,5C000000,-0724,0855,11997,036.0,045.7,0.473,728.4,01.19,0.508
2014-05-23 00:19:00,1942E-3,5C000000,-0724,0855,11915,035.9,045.8,0.474,728.4,01.19,0.508
2014-05-23 00:20:00,1772E-3,5C000000,-0724,0855,11950,036.0,045.8,0.473,728.3,01.19,0.508
2014-05-23 00:21:00,1865E-3,5C000000,-0724,0855,12147,036.0,045.8,0.473,728.3,01.19,0.508
2014-05-23 00:22:00,2028E-3,5C000000,-0724,0854,11958,036.0,045.8,0.473,728.3,01.19,0.508
2014-05-23 00:23:00,1908E-3,5C000000,-0724,0854,11993,036.0,045.7,0.474,728.3,01.19,0.508
2014-05-23 00:24:00,1887E-3,5C000000,-0724,0855,11967,036.0,045.7,0.473,728.3,01.19,0.508
2014-05-23 00:25:00,1934E-3,5C000000,-0724,0854,12062,036.0,045.8,0.473,728.3,01.19,0.508
2014-05-23 00:26:00,2031E-3,5C000000,-0724,0854,11952,036.0,045.8,0.474,728.3,01.19,0.508
2014-05-23 00:27:00,1776E-3,5C000000,-0724,0855,11928,036.0,045.7,0.473,728.3,01.19,0.508
2014-05-23 00:28:00,1863E-3,5C000000,-0724,0855,11702,036.0,045.8,0.473,728.3,01.19,0.508
2014-05-23 00:29:00,1912E-3,5C000000,-0724,0855,11908,036.0,045.8,0.474,728.3,01.19,0.508
2014-05-23 00:30:00,2012E-3,5C000000,-0724,0854,11923,036.0,045.8,0.473,728.3,01.19,0.508
2014-05-23 00:31:00,2031E-3,5C000000,-0724,0855,11939,036.0,045.8,0.473,728.3,01.19,0.508
2014-05-23 00:32:00,2000E-3,5C000000,-0724,0856,11823,036.0,045.8,0.473,728.3,01.19,0.508
2014-05-23 00:33:00,1842E-3,5C000000,-0724,0855,11856,036.0,045.8,0.473,728.3,01.19,0.508
2014-05-23 00:34:00,1884E-3,5C000000,-0724,0854,11957,036.0,045.7,0.473,728.3,01.19,0.508
2014-05-23 00:35:00,1754E-3,5C000000,-0724,0855,11876,036.0,045.7,0.473,728.3,01.19,0.508
2014-05-23 00:36:00,1714E-3,5C000000,-0724,0855,12039,036.0,045.8,0.474,728.3,01.19,0.508
2014-05-23 00:37:00,1894E-3,5C000000,-0724,0855,12047,036.0,045.8,0.473,728.2,01.19,0.508
2014-05-23 00:38:00,1985E-3,5C000000,-0724,0856,12098,036.0,045.8,0.473,728.2,01.19,0.508
2014-05-23 00:39:00,1924E-3,5C000000,-0724,0855,11938,036.1,045.8,0.473,728.2,01.19,0.508
2014-05-23 00:40:00,1944E-3,5C000000,-0724,0854,12004,036.0,045.8,0.473,728.2,01.19,0.508
2014-05-23 00:41:00,1811E-3,5C000000,-0724,0856,11901,036.1,045.8,0.473,728.1,01.19,0.508
2014-05-23 00:42:00,1956E-3,5C000000,-0724,0855,11844,036.1,045.8,0.473,728.2,01.19,0.508
2014-05-23 00:43:00,1780E-3,5C000000,-0724,0855,11880,036.1,045.8,0.473,728.1,01.19,0.508
2014-05-23 00:44:00,1695E-3,5C000000,-0724,0856,12022,036.1,045.7,0.473,728.2,01.19,0.508
2014-05-23 00:45:00,1884E-3,5C000000,-0724,0855,12046,036.1,045.7,0.473,728.1,01.19,0.508
2014-05-23 00:46:00,1755E-3,5C000000,-0724,0856,11743,036.1,045.8,0.473,728.2,01.19,0.508
2014-05-23 00:47:00,1744E-3,5C000000,-0724,0855,12054,036.1,045.8,0.473,728.1,01.19,0.508
2014-05-23 00:48:00,1828E-3,5C000000,-0724,0855,12020,036.1,045.8,0.473,728.1,01.19,0.508
2014-05-23 00:49:00,1796E-3,5C000000,-0724,0856,12101,036.1,045.7,0.473,728.1,01.19,0.508
2014-05-23 00:50:00,1962E-3,5C000000,-0724,0855,12100,036.1,045.8,0.473,728.1,01.19,0.508
2014-05-23 00:51:00,1925E-3,5C000000,-0724,0856,11851,036.1,045.8,0.473,728.1,01.19,0.508
2014-05-23 00:52:00,1710E-3,5C000000,-0724,0855,12050,036.1,045.8,0.473,728.1,01.19,0.508
2014-05-23 00:53:00,1909E-3,5C000000,-0724,0856,11929,036.1,045.8,0.473,728.1,01.19,0.508
2014-05-23 00:54:00,1994E-3,5C000000,-0724,0855,11945,036.1,045.8,0.473,728.1,01.19,0.508
2014-05-23 00:55:00,1949E-3,5C000000,-0724,0855,12035,036.1,045.8,0.473,728.1,01.19,0.508
2014-05-23 00:56:00,1877E-3,5C000000,-0724,0855,11981,036.1,045.8,0.473,728.1,01.19,0.508
2014-05-23 00:57:00,1945E-3,5C000000,-0724,0855,11843,036.1,045.8,0.473,728.1,01.19,0.508
2014-05-23 00:58:00,1703E-3,5C000000,-0724,0856,11847,036.1,045.8,0.473,728.1,01.19,0.508
2014-05-23 00:59:00,1883E-3,5C000000,-0724,0855,12065,036.1,045.8,0.473,728.0,01.19,0.508
2014-05-23 01:00:00,1830E-3,5C000000,-0724,0855,11973,036.1,045.8,0.473,728.0,01.19,0.508
2014-05-23 01:01:00,1819E-3,5C000000,-0724,0855,12036,036.1,045.8,0.473,728.0,01.19,0.508
2014-05-23 01:02:00,1775E-3,5C000000,-0724,0855,11734,036.1,045.8,0.473,728.0,01.19,0.508
2014-05-23 01:03:00,1868E-3,5C000000,-0724,0856,12011,036.1,045.8,0.473,728.0,01.19,0.508
2014-05-23 01:04:00,1927E-3,5C000000,-0724,0856,12067,036.1,045.8,0.473,728.0,01.19,0.508
2014-05-23 01:05:00,2052E-3,5C000000,-0724,0855,11796,036.2,045.8,0.473,728.0,01.19,0.508
2014-05-23 01:06:00,1825E-3,5C000000,-0724,0855,11964,036.2,045.8,0.473,728.0,01.19,0.508
2014-05-23 01:07:00,1853E-3,5C000000,-0724,0855,11897,036.2,045.8,0.472,728.0,01.19,0.508
2014-05-23 01:08:00,1808E-3,5C000000,-0724,0855,12012,036.2,045.8,0.473,728.0,01.19,0.508
2014-05-23 01:09:00,1872E-3,5C000000,-0724,0855,12079,036.2,045.8,0.473,728.0,01.19,0.508
2014-05-23 01:10:00,1836E-3,5C000000,-0724,0855,11853,036.2,045.8,0.473,728.0,01.19,0.508
2014-05-23 01:11:00,1762E-3,5C000000,-0724,0855,11910,036.2,045.8,0.473,728.0,01.19,0.508
2014-05-23 01:12:00,2016E-3,5C000000,-0724,0855,12077,036.2,045.8,0.473,728.0,01.19,0.508
2014-05-23 01:13:00,1759E-3,5C000000,-0724,0855,11900,036.2,045.8,0.473,728.0,01.19,0.508
2014-05-23 01:14:00,1867E-3,5C000000,-0724,0857,12071,036.2,045.8,0.473,728.0,01.19,0.508
2014-05-23 01:15:00,2000E-3,5C000000,-0724,0855,11880,036.2,045.8,0.473,728.0,01.19,0.508
2014-05-23 01:16:00,1869E-3,5C000000,-0724,0855,11922,036.2,045.8,0.472,728.0,01.19,0.508
2014-05-23 01:17:00,1957E-3,5C000000,-0724,0856,11699,036.2,045.8,0.473,728.0,01.19,0.508
2014-05-23 01:18:00,1791E-3,5C000000,-0724,0855,11891,036.2,045.8,0.473,728.0,01.19,0.508
2014-05-23 01:19:00,1879E-3,5C000000,-0724,0856,11827,036.2,045.8,0.472,728.0,01.19,0.508
2014-05-23 01:20:00,1951E-3,5C000000,-0724,0855,11977,036.2,045.8,0.473,728.0,01.19,0.508
2014-05-23 01:21:00,1791E-3,5C000000,-0724,0855,11959,036.2,045.8,0.473,728.0,01.19,0.508
2014-05-23 01:22:00,1742E-3,5C000000,-0724,0855,11752,036.2,045.8,0.472,727.9,01.19,0.508
2014-05-23 01:23:00,1872E-3,5C000000,-0724,0856,11870,036.2,045.8,0.473,728.0,01.19,0.508
2014-05-23 01:24:00,1882E-3,5C000000,-0724,0855,11942,036.2,045.8,0.473,727.9,01.19,0.508
2014-05-23 01:25:00,1963E-3,5C000000,-0724,0856,11854,036.2,045.8,0.472,727.9,01.19,0.508
2014-05-23 01:26:00,1785E-3,5C000000,-0724,0855,12046,036.2,045.8,0.473,727.9,01.19,0.508
2014-05-23 01:27:00,1826E-3,5C000000,-0724,0854,11980,036.2,045.8,0.473,727.9,01.19,0.508
2014-05-23 01:28:00,1818E-3,5C000000,-0724,0855,12033,036.3,045.8,0.472,727.9,01.19,0.508
2014-05-23 01:29:00,1827E-3,5C000000,-0724,0856,12053,036.2,045.8,0.473,728.0,01.19,0.508
2014-05-23 01:30:00,1920E-3,5C000000,-0724,0855,12049,036.3,045.8,0.473,727.9,01.19,0.508
2014-05-23 01:31:00,1775E-3,5C000000,-0724,0854,11977,036.3,045.8,0.472,727.9,01.19,0.508
2014-05-23 01:32:00,1845E-3,5C000000,-0724,0854,11967,036.3,045.8,0.473,727.9,01.19,0.508
2014-05-23 01:33:00,1747E-3,5C000000,-0724,0856,11965,036.3,045.8,0.473,727.9,01.19,0.508
2014-05-23 01:34:00,1818E-3,5C000000,-0724,0854,12012,036.3,045.8,0.472,727.9,01.19,0.508
2014-05-23 01:35:00,1802E-3,5C000000,-0724,0855,11719,036.3,045.8,0.473,727.9,01.19,0.508
2014-05-23 01:36:00,1865E-3,5C000000,-0724,0855,11911,036.3,045.8,0.473,727.9,01.19,0.508
2014-05-23 01:37:00,1714E-3,5C000000,-0724,0855,12038,036.3,045.8,0.472,727.9,01.19,0.508
2014-05-23 01:38:00,1939E-3,5C000000,-0724,0855,12057,036.3,045.8,0.473,727.8,01.19,0.508
2014-05-23 01:39:00,1818E-3,5C000000,-0724,0856,11934,036.3,045.8,0.473,727.9,01.19,0.508
2014-05-23 01:40:00,1963E-3,5C000000,-0724,0854,11967,036.3,045.8,0.472,727.9,01.19,0.508
2014-05-23 01:41:00,1860E-3,5C000000,-0724,0856,11779,036.3,045.8,0.473,727.9,01.19,0.508
2014-05-23 01:42:00,1916E-3,5C000000,-0724,0854,11861,036.3,045.8,0.472,727.9,01.19,0.508
2014-05-23 01:43:00,1819E-3,5C000000,-0724,0855,12019,036.3,045.8,0.472,727.9,01.19,0.508
2014-05-23 01:44:00,1962E-3,5C000000,-0724,0854,11960,036.3,045.8,0.473,727.9,01.19,0.508
2014-05-23 01:45:00,1824E-3,5C000000,-0724,0855,12157,036.3,045.8,0.473,727.9,01.19,0.508
2014-05-23 01:46:00,2049E-3,5C000000,-0724,0855,11951,036.3,045.8,0.472,727.9,01.19,0.508
2014-05-23 01:47:00,1863E-3,5C000000,-0724,0854,11844,036.3,045.8,0.473,727.9,01.19,0.508
2014-05-23 01:48:00,1852E-3,5C000000,-0724,0855,11880,036.3,045.8,0.473,727.9,01.19,0.508
2014-05-23 01:49:00,1834E-3,5C000000,-0724,0854,12012,036.3,045.8,0.472,727.9,01.19,0.508
2014-05-23 01:50:00,1745E-3,5C000000,-0724,0855,12173,036.3,045.8,0.473,727.9,01.19,0.508
2014-05-23 01:51:00,1832E-3,5C000000,-0724,0855,11804,036.3,045.8,0.473,727.9,01.19,0.508
2014-05-23 01:52:00,1953E-3,5C000000,-0724,0855,12075,036.3,045.8,0.472,727.9,01.19,0.508
2014-05-23 01:53:00,1939E-3,5C000000,-0724,0856,12011,036.3,045.8,0.473,727.9,01.19,0.508
2014-05-23 01:54:00,1838E-3,5C000000,-0724,0855,11837,036.3,045.8,0.473,727.9,01.19,0.508
2014-05-23 01:55:00,1849E-3,5C000000,-0724,0855,11866,036.3,045.8,0.472,727.9,01.19,0.508
2014-05-23 01:56:00,1822E-3,5C000000,-0724,0856,11901,036.3,045.8,0.473,727.9,01.19,0.508
2014-05-23 01:57:00,1879E-3,5C000000,-0724,0856,11844,036.4,045.8,0.473,727.9,01.19,0.508
2014-05-23 01:58:00,1926E-3,5C000000,-0724,0855,11946,036.4,045.8,0.472,727.9,01.19,0.508
2014-05-23 01:59:00,1827E-3,5C000000,-0724,0855,11836,036.3,045.8,0.472,727.8,01.19,0.508
2014-05-23 02:00:00,1872E-3,5C000000,-0724,0856,11965,036.4,045.8,0.473,727.9,01.19,0.508
2014-05-23 02:01:00,1839E-3,5C000000,-0724,0855,11923,036.4,045.8,0.472,727.8,01.19,0.508
2014-05-23 02:02:00,1828E-3,5C000000,-0724,0855,11990,036.4,045.8,0.472,727.9,01.19,0.508
2014-05-23 02:03:00,1800E-3,5C000000,-0724,0855,11799,036.4,045.8,0.473,727.8,01.19,0.508
2014-05-23 02:04:00,1919E-3,5C000000,-0724,0855,12046,036.4,045.8,0.473,727.9,01.19,0.508
2014-05-23 02:05:00,1726E-3,5C000000,-0724,0855,11887,036.4,045.8,0.472,727.8,01.19,0.508
2014-05-23 02:06:00,1872E-3,5C000000,-0724,0856,11908,036.4,045.8,0.473,727.8,01.19,0.508
2014-05-23 02:07:00,1754E-3,5C000000,-0724,0855,11944,036.4,045.8,0.473,727.8,01.19,0.508
2014-05-23 02:08:00,1793E-3,5C000000,-0724,0854,11794,036.4,045.8,0.472,727.8,01.19,0.508
2014-05-23 02:09:00,1882E-3,5C000000,-0724,0854,11712,036.4,045.7,0.472,727.8,01.19,0.508
2014-05-23 02:10:00,1927E-3,5C000000,-0724,0854,11882,036.4,045.7,0.473,727.8,01.19,0.508
2014-05-23 02:11:00,1819E-3,5C000000,-0724,0855,11709,036.4,045.8,0.472,727.8,01.19,0.508
2014-05-23 02:12:00,1863E-3,5C000000,-0724,0854,11959,036.4,045.8,0.472,727.8,01.19,0.508
2014-05-23 02:13:00,1733E-3,5C000000,-0724,0856,11827,036.4,045.8,0.473,727.8,01.19,0.508
2014-05-23 02:14:00,1724E-3,5C000000,-0724,0856,12065,036.4,045.8,0.472,727.8,01.19,0.508
2014-05-23 02:15:00,1890E-3,5C000000,-0724,0855,11982,036.4,045.8,0.472,727.8,01.19,0.508
2014-05-23 02:16:00,1774E-3,5C000000,-0724,0854,11779,036.4,045.8,0.473,727.8,01.19,0.508
2014-05-23 02:17:00,1799E-3,5C000000,-0724,0856,11955,036.4,045.8,0.472,727.8,01.19,0.508
2014-05-23 02:18:00,1703E-3,5C000000,-0724,0855,12125,036.4,045.8,0.472,727.8,01.19,0.508
2014-05-23 02:19:00,1933E-3,5C000000,-0724,0855,11947,036.4,045.8,0.473,727.8,01.19,0.508
2014-05-23 02:20:00,1777E-3,5C000000,-0724,0855,11884,036.5,045.8,0.473,727.8,01.19,0.508
2014-05-23 02:21:00,1778E-3,5C000000,-0724,0854,11913,036.5,045.8,0.472,727.8,01.19,0.508
2014-05-23 02:22:00,1816E-3,5C000000,-0724,0855,11979,036.4,045.8,0.472,727.9,01.19,0.508
2014-05-23 02:23:00,1922E-3,5C000000,-0724,0856,11742,036.5,045.8,0.473,727.8,01.19,0.508
2014-05-23 02:24:00,1945E-3,5C000000,-0724,0855,11967,036.5,045.8,0.472,727.8,01.19,0.508
2014-05-23 02:25:00,1828E-3,5C000000,-0724,0855,11920,036.5,045.8,0.472,727.9,01.19,0.508
2014-05-23 02:26:00,1854E-3,5C000000,-0724,0855,11985,036.5,045.8,0.473,727.9,01.19,0.508
2014-05-23 02:27:00,1933E-3,5C000000,-0724,0855,11956,036.5,045.8,0.472,727.9,01.19,0.508
2014-05-23 02:28:00,1805E-3,5C000000,-0724,0854,11873,036.5,045.8,0.472,727.9,01.19,0.508
2014-05-23 02:29:00,1776E-3,5C000000,-0724,0855,11709,036.5,045.8,0.472,727.9,01.19,0.508
2014-05-23 02:30:00,1728E-3,5C000000,-0724,0856,12063,036.5,045.8,0.473,727.8,01.19,0.508
2014-05-23 02:31:00,1831E-3,5C000000,-0724,0856,11921,036.5,045.8,0.472,727.9,01.19,0.508
2014-05-23 02:32:00,1788E-3,5C000000,-0724,0856,11787,036.5,045.8,0.472,727.8,01.19,0.508
2014-05-23 02:33:00,1827E-3,5C000000,-0724,0855,11968,036.5,045.8,0.472,727.8,01.19,0.508
2014-05-23 02:34:00,1787E-3,5C000000,-0724,0854,11816,036.5,045.8,0.473,727.8,01.19,0.508
2014-05-23 02:35:00,1912E-3,5C000000,-0724,0856,11989,036.5,045.8,0.472,727.8,01.19,0.508
2014-05-23 02:36:00,1818E-3,5C000000,-0724,0855,12018,036.5,045.8,0.472,727.8,01.19,0.508
2014-05-23 02:37:00,1848E-3,5C000000,-0724,0855,11835,036.5,045.8,0.473,727.8,01.19,0.508
2014-05-23 02:38:00,1853E-3,5C000000,-0724,0855,12069,036.5,045.8,0.472,727.8,01.19,0.508
2014-05-23 02:39:00,1795E-3,5C000000,-0724,0855,11949,036.5,045.8,0.472,727.8,01.19,0.508
2014-05-23 02:40:00,1802E-3,5C000000,-0724,0856,11842,036.5,045.8,0.472,727.8,01.19,0.508
2014-05-23 02:41:00,1773E-3,5C000000,-0724,0856,12024,036.5,045.8,0.472,727.7,01.19,0.508
2014-05-23 02:42:00,1780E-3,5C000000,-0724,0856,11990,036.5,045.8,0.472,727.8,01.19,0.508
2014-05-23 02:43:00,1828E-3,5C000000,-0724,0856,11906,036.5,045.8,0.472,727.8,01.19,0.508
2014-05-23 02:44:00,1904E-3,5C000000,-0724,0855,12016,036.5,045.8,0.473,727.8,01.19,0.508
2014-05-23 02:45:00,1878E-3,5C000000,-0724,0855,11987,036.5,045.8,0.472,727.8,01.19,0.508
2014-05-23 02:46:00,1952E-3,5C000000,-0724,0854,11820,036.5,045.8,0.472,727.8,01.19,0.508
2014-05-23 02:47:00,1863E-3,5C000000,-0724,0855,11815,036.5,045.8,0.473,727.8,01.19,0.508
2014-05-23 02:48:00,1921E-3,5C000000,-0724,0856,11856,036.5,045.8,0.472,727.8,01.19,0.508
2014-05-23 02:49:00,1694E-3,5C000000,-0724,0855,11855,036.6,045.8,0.472,727.8,01.19,0.508
2014-05-23 02:50:00,1875E-3,5C000000,-0724,0854,11815,036.6,045.8,0.472,727.8,01.19,0.508
2014-05-23 02:51:00,1903E-3,5C000000,-0724,0855,11918,036.5,045.8,0.472,727.8,01.19,0.508
2014-05-23 02:52:00,1919E-3,5C000000,-0724,0856,11917,036.6,045.8,0.472,727.8,01.19,0.508
2014-05-23 02:53:00,1651E-3,5C000000,-0724,0855,12066,036.6,045.8,0.472,727.7,01.19,0.508
2014-05-23 02:54:00,1768E-3,5C000000,-0724,0855,11839,036.5,045.8,0.472,727.7,01.19,0.508
2014-05-23 02:55:00,2021E-3,5C000000,-0724,0855,11895,036.6,045.8,0.472,727.7,01.19,0.508
2014-05-23 02:56:00,1945E-3,5C000000,-0724,0855,11885,036.6,045.8,0.472,727.7,01.19,0.508
2014-05-23 02:57:00,1882E-3,5C000000,-0724,0856,12025,036.6,045.8,0.472,727.6,01.19,0.508
2014-05-23 02:58:00,1949E-3,5C000000,-0724,0855,11884,036.6,045.8,0.472,727.6,01.19,0.508
2014-05-23 02:59:00,1840E-3,5C000000,-0724,0854,11949,036.6,045.8,0.472,727.6,01.19,0.508
2014-05-23 03:00:00,1760E-3,5C000000,-0724,0855,11978,036.6,045.8,0.472,727.6,01.19,0.508
2014-05-23 03:01:00,1748E-3,5C000000,-0724,0855,11845,036.6,045.8,0.472,727.6,01.19,0.508
2014-05-23 03:02:00,1914E-3,5C000000,-0724,0855,11980,036.6,045.8,0.472,727.6,01.19,0.508
2014-05-23 03:03:00,1837E-3,5C000000,-0724,0856,11955,036.6,045.8,0.472,727.7,01.19,0.508
2014-05-23 03:04:00,1842E-3,5C000000,-0724,0855,11946,036.6,045.8,0.472,727.7,01.19,0.508
2014-05-23 03:05:00,1897E-3,5C000000,-0724,0855,11956,036.6,045.8,0.472,727.7,01.19,0.508
2014-05-23 03:06:00,1842E-3,5C000000,-0724,0855,11850,036.6,045.8,0.472,727.7,01.19,0.508
2014-05-23 03:07:00,1831E-3,5C000000,-0724,0856,11964,036.6,045.8,0.472,727.7,01.19,0.508
2014-05-23 03:08:00,1781E-3,5C000000,-0724,0856,11918,036.6,045.8,0.472,727.7,01.19,0.508
2014-05-23 03:09:00,1774E-3,5C000000,-0724,0855,12069,036.6,045.8,0.472,727.7,01.19,0.508
2014-05-23 03:10:00,1801E-3,5C000000,-0724,0855,11781,036.6,045.8,0.472,727.7,01.19,0.508
2014-05-23 03:11:00,1911E-3,5C000000,-0724,0856,11936,036.6,045.8,0.472,727.7,01.19,0.508
2014-05-23 03:12:00,1788E-3,5C000000,-0724,0856,11973,036.6,045.8,0.472,727.7,01.19,0.508
2014-05-23 03:13:00,1860E-3,5C000000,-0724,0855,11792,036.6,045.8,0.472,727.7,01.19,0.508
2014-05-23 03:14:00,1800E-3,5C000000,-0724,0855,11958,036.6,045.8,0.472,727.7,01.19,0.508
2014-05-23 03:15:00,1795E-3,5C000000,-0724,0856,12013,036.6,045.8,0.472,727.7,01.19,0.508
2014-05-23 03:16:00,1832E-3,5C000000,-0724,0856,12059,036.6,045.8,0.472,727.7,01.19,0.508
2014-05-23 03:17:00,1962E-3,5C000000,-0724,0855,11868,036.6,045.8,0.472,727.6,01.19,0.508
2014-05-23 03:18:00,1850E-3,5C000000,-0724,0856,11908,036.6,045.8,0.472,727.6,01.19,0.508
2014-05-23 03:19:00,1825E-3,5C000000,-0724,0855,11827,036.6,045.8,0.472,727.6,01.19,0.508
2014-05-23 03:20:00,1809E-3,5C000000,-0724,0855,11735,036.6,045.8,0.472,727.6,01.19,0.508
2014-05-23 03:21:00,1826E-3,5C000000,-0724,0855,11952,036.6,045.8,0.472,727.5,01.19,0.508
2014-05-23 03:22:00,1733E-3,5C000000,-0724,0855,11884,036.6,045.8,0.472,727.6,01.19,0.508
2014-05-23 03:23:00,1943E-3,5C000000,-0724,0856,11989,036.7,045.8,0.472,727.5,01.19,0.508
2014-05-23 03:24:00,1865E-3,5C000000,-0724,0855,11912,036.6,045.8,0.472,727.6,01.19,0.508
2014-05-23 03:25:00,1965E-3,5C000000,-0724,0855,11855,036.6,045.8,0.472,727.6,01.19,0.508
2014-05-23 03:26:00,1989E-3,5C000000,-0724,0855,11877,036.6,045.8,0.472,727.6,01.19,0.508
2014-05-23 03:27:00,1826E-3,5C000000,-0724,0855,11981,036.7,045.8,0.472,727.5,01.19,0.508
2014-05-23 03:28:00,1963E-3,5C000000,-0724,0855,11926,036.7,045.8,0.472,727.6,01.19,0.508
2014-05-23 03:29:00,1654E-3,5C000000,-0724,0855,11979,036.6,045.8,0.472,727.6,01.19,0.508
2014-05-23 03:30:00,1910E-3,5C000000,-0724,0855,12069,036.7,045.8,0.472,727.6,01.19,0.508
2014-05-23 03:31:00,1893E-3,5C000000,-0724,0856,11920,036.6,045.8,0.472,727.6,01.19,0.508
2014-05-23 03:32:00,1862E-3,5C000000,-0724,0855,11943,036.7,045.8,0.472,727.5,01.19,0.508
2014-05-23 03:33:00,1955E-3,5C000000,-0724,0855,11987,036.7,045.8,0.472,727.6,01.19,0.508
2014-05-23 03:34:00,1757E-3,5C000000,-0724,0855,11828,036.7,045.8,0.472,727.6,01.19,0.508
2014-05-23 03:35:00,1852E-3,5C000000,-0724,0855,11891,036.7,045.8,0.472,727.6,01.19,0.508
2014-05-23 03:36:00,1985E-3,5C000000,-0724,0855,11912,036.7,045.8,0.472,727.6,01.19,0.508
2014-05-23 03:37:00,1935E-3,5C000000,-0724,0855,11986,036.7,045.8,0.472,727.5,01.19,0.508
2014-05-23 03:38:00,1846E-3,5C000000,-0724,0855,11861,036.7,045.8,0.472,727.5,01.19,0.508
2014-05-23 03:39:00,1817E-3,5C000000,-0724,0856,12045,036.7,045.8,0.472,727.5,01.19,0.508
2014-05-23 03:40:00,1795E-3,5C000000,-0724,0855,11856,036.7,045.8,0.472,727.5,01.19,0.508
2014-05-23 03:41:00,1827E-3,5C000000,-0724,0855,11730,036.7,045.8,0.472,727.5,01.19,0.508
2014-05-23 03:42:00,1834E-3,5C000000,-0724,0856,11829,036.7,045.8,0.472,727.5,01.19,0.508
2014-05-23 03:43:00,1831E-3,5C000000,-0724,0856,11921,036.7,045.8,0.472,727.5,01.19,0.508
2014-05-23 03:44:00,1896E-3,5C000000,-0724,0855,11934,036.7,045.8,0.472,727.5,01.19,0.508
2014-05-23 03:45:00,1767E-3,5C000000,-0724,0856,11931,036.7,045.8,0.472,727.5,01.19,0.508
2014-05-23 03:46:00,1886E-3,5C000000,-0724,0855,11927,036.7,045.8,0.472,727.5,01.19,0.508
2014-05-23 03:47:00,1886E-3,5C000000,-0724,0855,11895,036.7,045.8,0.472,727.5,01.19,0.508
2014-05-23 03:48:00,1779E-3,5C000000,-0724,0855,11969,036.7,045.8,0.472,727.5,01.19,0.508
2014-05-23 03:49:00,1867E-3,5C000000,-0724,0855,11945,036.7,045.8,0.472,727.5,01.19,0.508
2014-05-23 03:50:00,1839E-3,5C000000,-0724,0856,11764,036.7,045.8,0.472,727.5,01.19,0.508
2014-05-23 03:51:00,1851E-3,5C000000,-0724,0855,12021,036.7,045.8,0.472,727.5,01.19,0.508
2014-05-23 03:52:00,1961E-3,5C000000,-0724,0856,12126,036.7,045.8,0.472,727.5,01.19,0.508
2014-05-23 03:53:00,1786E-3,5C000000,-0724,0855,12009,036.7,045.8,0.472,727.5,01.19,0.508
2014-05-23 03:54:00,1901E-3,5C000000,-0724,0855,11806,036.7,045.8,0.471,727.4,01.19,0.508
2014-05-23 03:55:00,1891E-3,5C000000,-0724,0855,11875,036.7,045.8,0.472,727.4,01.19,0.508
2014-05-23 03:56:00,1798E-3,5C000000,-0724,0855,11847,036.7,045.8,0.472,727.4,01.19,0.508
2014-05-23 03:57:00,1922E-3,5C000000,-0724,0854,11872,036.7,045.8,0.471,727.4,01.19,0.508
2014-05-23 03:58:00,1861E-3,5C000000,-0724,0854,11881,036.7,045.8,0.472,727.5,01.19,0.508
2014-05-23 03:59:00,1749E-3,5C000000,-0724,0855,11919,036.7,045.8,0.472,727.5,01.19,0.508
2014-05-23 04:00:00,1902E-3,5C000000,-0724,0855,11750,036.7,045.8,0.471,727.4,01.19,0.508
2014-05-23 04:01:00,1937E-3,5C000000,-0724,0856,11900,036.7,045.8,0.472,727.4,01.19,0.508
2014-05-23 04:02:00,1823E-3,5C000000,-0724,0855,12029,036.7,045.8,0.472,727.4,01.19,0.508
2014-05-23 04:03:00,1741E-3,5C000000,-0724,0855,11879,036.7,045.8,0.471,727.4,01.19,0.508
2014-05-23 04:04:00,1766E-3,5C000000,-0724,0856,12065,036.7,045.8,0.472,727.4,01.19,0.508
2014-05-23 04:05:00,2009E-3,5C000000,-0724,0854,12008,036.7,045.8,0.472,727.4,01.19,0.508
2014-05-23 04:06:00,1944E-3,5C000000,-0724,0855,11938,036.8,045.8,0.471,727.4,01.19,0.508
2014-05-23 04:07:00,1804E-3,5C000000,-0724,0855,11712,036.7,045.8,0.472,727.5,01.19,0.508
2014-05-23 04:08:00,1784E-3,5C000000,-0724,0855,12092,036.7,045.8,0.472,727.4,01.19,0.508
2014-05-23 04:09:00,1784E-3,5C000000,-0724,0855,11992,036.7,045.8,0.472,727.4,01.19,0.508
2014-05-23 04:10:00,1845E-3,5C000000,-0724,0855,11846,036.7,045.8,0.471,727.5,01.19,0.508
2014-05-23 04:11:00,1870E-3,5C000000,-0724,0855,12053,036.8,045.8,0.472,727.5,01.19,0.508
2014-05-23 04:12:00,1969E-3,5C000000,-0724,0856,11832,036.8,045.8,0.472,727.5,01.19,0.508
2014-05-23 04:13:00,1812E-3,5C000000,-0724,0855,11831,036.8,045.8,0.471,727.5,01.19,0.508
2014-05-23 04:14:00,1947E-3,5C000000,-0724,0854,12026,036.8,045.8,0.472,727.5,01.19,0.508
2014-05-23 04:15:00,1861E-3,5C000000,-0724,0857,11837,036.8,045.8,0.471,727.4,01.19,0.508
2014-05-23 04:16:00,1992E-3,5C000000,-0724,0856,11917,036.8,045.8,0.472,727.4,01.19,0.508
2014-05-23 04:17:00,1870E-3,5C000000,-0724,0855,11543,036.8,045.8,0.472,727.4,01.19,0.508
2014-05-23 04:18:00,1879E-3,5C000000,-0724,0855,11971,036.8,045.8,0.471,727.4,01.19,0.508
2014-05-23 04:19:00,1849E-3,5C000000,-0724,0856,12003,036.8,045.8,0.472,727.5,01.19,0.508
2014-05-23 04:20:00,1947E-3,5C000000,-0724,0856,12068,036.8,045.8,0.472,727.5,01.19,0.508